| time (UTC) | temp C | wind direction | speed KPH | gust KPH | rain 1hr cm | rain 24hr cm | rain mn cm | humidity % | barometer mb |
| 20260503200033 | 26 | 199 | 1.6 | 9.7 | 0.00 | 0.00 | 0.00 | 43 | 1013.6 |
| 20260503194530 | 25 | 211 | 0.0 | 8.0 | 0.00 | 0.00 | 0.00 | 44 | 1013.8 |
| 20260503193029 | 25 | 131 | 1.6 | 9.7 | 0.00 | 0.00 | 0.00 | 47 | 1014.0 |
| 20260503191526 | 25 | 103 | 0.0 | 9.7 | 0.00 | 0.00 | 0.00 | 49 | 1014.1 |
| 20260503190029 | 24 | 126 | 1.6 | 9.7 | 0.00 | 0.00 | 0.00 | 48 | 1014.2 |
| 20260503184527 | 24 | 124 | 4.8 | 11.3 | 0.00 | 0.00 | 0.00 | 48 | 1014.3 |
| 20260503183020 | 24 | 103 | 0.0 | 9.7 | 0.00 | 0.00 | 0.00 | 48 | 1014.4 |
| 20260503181518 | 23 | 166 | 0.0 | 14.5 | 0.00 | 0.00 | 0.00 | 52 | 1014.4 |
| 20260503180026 | 23 | 155 | 3.2 | 9.7 | 0.00 | 0.00 | 0.00 | 49 | 1014.4 |
| 20260503174520 | 23 | 124 | 0.0 | 9.7 | 0.00 | 0.00 | 0.00 | 51 | 1014.6 |
| 20260503173015 | 23 | 127 | 1.6 | 8.0 | 0.00 | 0.00 | 0.00 | 48 | 1014.6 |
| 20260503171517 | 23 | 121 | 0.0 | 0.0 | 0.00 | 0.00 | 0.00 | 47 | 1014.7 |
| 20260503081509 | 15 | 219 | 0.0 | 4.8 | 0.00 | 0.00 | 0.00 | 61 | 1015.4 |
| 20260503071505 | 15 | 269 | 0.0 | 4.8 | 0.00 | 0.00 | 0.00 | 59 | 1015.4 |
| 20260503060123 | 17 | 252 | 0.0 | 19.3 | 0.00 | 0.00 | 0.00 | 54 | 1015.2 |
| 20260503054600 | 17 | 252 | 1.6 | 9.7 | 0.00 | 0.00 | 0.00 | 53 | 1015.2 |
| 20260503053057 | 18 | 221 | 0.0 | 9.7 | 0.00 | 0.00 | 0.00 | 53 | 1015.3 |
| 20260503051656 | 18 | 153 | 0.0 | 8.0 | 0.00 | 0.00 | 0.00 | 51 | 1015.4 |
| 20260503044555 | 18 | 271 | 1.6 | 8.0 | 0.00 | 0.00 | 0.00 | 49 | 1015.3 |
| 20260503043057 | 19 | 99 | 0.0 | 12.9 | 0.00 | 0.00 | 0.00 | 48 | 1015.2 |
| 20260503041554 | 20 | 249 | 0.0 | 9.7 | 0.00 | 0.00 | 0.00 | 46 | 1015.1 |
| 20260503040055 | 20 | 275 | 0.0 | 6.4 | 0.00 | 0.00 | 0.00 | 44 | 1015.0 |
| 20260503034555 | 20 | 239 | 0.0 | 4.8 | 0.00 | 0.00 | 0.00 | 45 | 1014.8 |
| 20260503033059 | 20 | 281 | 0.0 | 0.0 | 0.00 | 0.00 | 0.00 | 44 | 1014.7 |
| 20260503031552 | 21 | 278 | 0.0 | 0.0 | 0.00 | 0.00 | 0.00 | 43 | 1014.5 |
| 20260503030051 | 21 | 280 | 0.0 | 8.0 | 0.00 | 0.00 | 0.00 | 41 | 1014.5 |
| 20260503024552 | 22 | 252 | 0.0 | 1.6 | 0.00 | 0.00 | 0.00 | 41 | 1014.4 |
| 20260503023051 | 22 | 313 | 0.0 | 0.0 | 0.00 | 0.00 | 0.00 | 39 | 1014.4 |
| 20260503021553 | 23 | 258 | 0.0 | 6.4 | 0.00 | 0.00 | 0.00 | 37 | 1014.4 |
| 20260503020049 | 23 | 288 | 0.0 | 4.8 | 0.00 | 0.00 | 0.00 | 38 | 1014.5 |
| 20260503014601 | 24 | 215 | 0.0 | 0.0 | 0.00 | 0.00 | 0.00 | 39 | 1014.5 |
| 20260503013046 | 25 | 277 | 0.0 | 0.0 | 0.00 | 0.00 | 0.00 | 36 | 1014.6 |
| 20260503011552 | 25 | 277 | 0.0 | 3.2 | 0.00 | 0.00 | 0.00 | 36 | 1014.7 |
| 20260503010042 | 26 | 84 | 0.0 | 0.0 | 0.00 | 0.00 | 0.00 | 33 | 1014.6 |
| 20260503004540 | 27 | 84 | 0.0 | 6.4 | 0.00 | 0.00 | 0.00 | 31 | 1014.7 |
| 20260503003041 | 27 | 241 | 0.0 | 1.6 | 0.00 | 0.00 | 0.00 | 31 | 1014.8 |
| 20260503001537 | 27 | 241 | 0.0 | 0.0 | 0.00 | 0.00 | 0.00 | 30 | 1014.9 |
| 20260503000038 | 27 | 241 | 0.0 | 0.0 | 0.00 | 0.00 | 0.00 | 29 | 1015.0 |
| 20260502234537 | 27 | 241 | 0.0 | 1.6 | 0.00 | 0.00 | 0.00 | 34 | 1015.1 |
| 20260502233031 | 27 | 241 | 0.0 | 6.4 | 0.00 | 0.00 | 0.00 | 32 | 1015.2 |
| 20260502231531 | 27 | 241 | 0.0 | 1.6 | 0.00 | 0.00 | 0.00 | 32 | 1015.4 |
| 20260502230030 | 27 | 241 | 0.0 | 1.6 | 0.00 | 0.00 | 0.00 | 34 | 1015.5 |
| 20260502224524 | 27 | 240 | 0.0 | 6.4 | 0.00 | 0.00 | 0.00 | 36 | 1015.7 |
| 20260502223023 | 27 | 230 | 0.0 | 6.4 | 0.00 | 0.00 | 0.00 | 35 | 1015.9 |
| 20260502221521 | 27 | 73 | 0.0 | 8.0 | 0.00 | 0.00 | 0.00 | 39 | 1016.0 |
| 20260502220022 | 27 | 121 | 0.0 | 1.6 | 0.00 | 0.00 | 0.00 | 40 | 1016.2 |
| 20260502214518 | 27 | 120 | 0.0 | 1.6 | 0.00 | 0.00 | 0.00 | 36 | 1016.3 |
| 20260502213033 | 27 | 120 | 0.0 | 9.7 | 0.00 | 0.00 | 0.00 | 37 | 1016.3 |
| 20260502211519 | 27 | 279 | 0.0 | 4.8 | 0.00 | 0.00 | 0.00 | 38 | 1016.4 |
| 20260502210014 | 26 | 169 | 3.2 | 9.7 | 0.00 | 0.00 | 0.00 | 35 | 1016.7 |
| 20260502204511 | 26 | 232 | 0.0 | 1.6 | 0.00 | 0.00 | 0.00 | 37 | 1016.7 |
| 20260502203008 | 26 | 258 | 0.0 | 9.7 | 0.00 | 0.00 | 0.00 | 38 | 1016.9 |
| 20260502201522 | 25 | 176 | 0.0 | 8.0 | 0.00 | 0.00 | 0.00 | 40 | 1017.1 |